| time (UTC) | temp F | wind direction | speed MPH | gust MPH | rain 1hr in | rain 24hr in | rain mn in | humidity % | barometer mb |
| 20260510143809 | 59 | 0 | 12.0 | 20.0 | 0.00 | 0.00 | 0.00 | 75 | 1012.6 |
| 20260510143305 | 59 | 0 | 12.0 | 21.0 | 0.00 | 0.00 | 0.00 | 74 | 1012.7 |
| 20260510142813 | 59 | 0 | 13.0 | 21.0 | 0.00 | 0.00 | 0.00 | 74 | 1012.8 |
| 20260510142306 | 59 | 0 | 11.0 | 21.0 | 0.00 | 0.00 | 0.00 | 73 | 1012.8 |
| 20260510141807 | 59 | 0 | 9.0 | 21.0 | 0.00 | 0.00 | 0.00 | 73 | 1012.8 |
| 20260510140809 | 60 | 0 | 12.0 | 21.0 | 0.00 | 0.00 | 0.00 | 72 | 1012.8 |
| 20260510140309 | 60 | 0 | 14.0 | 22.0 | 0.00 | 0.00 | 0.00 | 71 | 1012.9 |
| 20260510135808 | 61 | 0 | 12.0 | 22.0 | 0.00 | 0.00 | 0.00 | 70 | 1012.9 |
| 20260510135310 | 61 | 0 | 9.0 | 20.0 | 0.00 | 0.00 | 0.00 | 71 | 1013.0 |
| 20260510134810 | 61 | 7 | 15.0 | 22.0 | 0.00 | 0.00 | 0.00 | 69 | 1013.0 |
| 20260510134310 | 62 | 0 | 14.0 | 23.0 | 0.00 | 0.00 | 0.00 | 69 | 1013.0 |
| 20260510133812 | 62 | 0 | 15.0 | 23.0 | 0.00 | 0.00 | 0.00 | 67 | 1012.9 |
| 20260510133305 | 63 | 0 | 12.0 | 23.0 | 0.00 | 0.00 | 0.00 | 66 | 1013.0 |
| 20260510132808 | 63 | 0 | 9.0 | 23.0 | 0.00 | 0.00 | 0.00 | 66 | 1013.0 |
| 20260510132307 | 63 | 0 | 14.0 | 21.0 | 0.00 | 0.00 | 0.00 | 65 | 1013.0 |
| 20260510131808 | 63 | 1 | 13.0 | 22.0 | 0.00 | 0.00 | 0.00 | 65 | 1013.0 |
| 20260510131305 | 63 | 6 | 13.0 | 22.0 | 0.00 | 0.00 | 0.00 | 64 | 1013.1 |
| 20260510130305 | 64 | 11 | 15.0 | 23.0 | 0.00 | 0.00 | 0.00 | 65 | 1013.1 |
| 20260510125812 | 63 | 0 | 14.0 | 23.0 | 0.00 | 0.00 | 0.00 | 67 | 1013.2 |
| 20260510125309 | 62 | 3 | 14.0 | 23.0 | 0.00 | 0.00 | 0.00 | 66 | 1013.1 |
| 20260510124809 | 62 | 3 | 12.0 | 23.0 | 0.00 | 0.00 | 0.00 | 65 | 1013.3 |
| 20260510124306 | 63 | 0 | 12.0 | 21.0 | 0.00 | 0.00 | 0.00 | 64 | 1013.3 |
| 20260510123809 | 63 | 0 | 15.0 | 22.0 | 0.00 | 0.00 | 0.00 | 64 | 1013.4 |
| 20260510123305 | 63 | 0 | 16.0 | 22.0 | 0.00 | 0.00 | 0.00 | 65 | 1013.4 |
| 20260510122809 | 63 | 0 | 15.0 | 22.0 | 0.00 | 0.00 | 0.00 | 65 | 1013.4 |
| 20260510122306 | 62 | 1 | 13.0 | 22.0 | 0.00 | 0.00 | 0.00 | 63 | 1013.5 |
| 20260510121808 | 62 | 3 | 15.0 | 23.0 | 0.00 | 0.00 | 0.00 | 59 | 1013.4 |
| 20260510121305 | 63 | 0 | 17.0 | 24.0 | 0.00 | 0.00 | 0.00 | 59 | 1013.5 |
| 20260510120809 | 63 | 6 | 16.0 | 24.0 | 0.00 | 0.00 | 0.00 | 59 | 1013.5 |
| 20260510120305 | 63 | 4 | 15.0 | 23.0 | 0.00 | 0.00 | 0.00 | 57 | 1013.6 |
| 20260510115809 | 64 | 3 | 14.0 | 24.0 | 0.00 | 0.00 | 0.00 | 58 | 1013.6 |
| 20260510115307 | 64 | 0 | 16.0 | 24.0 | 0.00 | 0.00 | 0.00 | 56 | 1013.7 |
| 20260510114307 | 64 | 0 | 14.0 | 24.0 | 0.00 | 0.00 | 0.00 | 59 | 1013.8 |
| 20260510113305 | 64 | 25 | 15.0 | 26.0 | 0.00 | 0.00 | 0.00 | 59 | 1013.8 |
| 20260510112809 | 64 | 6 | 12.0 | 24.0 | 0.00 | 0.00 | 0.00 | 59 | 1013.9 |
| 20260510112306 | 63 | 8 | 13.0 | 24.0 | 0.00 | 0.00 | 0.00 | 58 | 1014.1 |
| 20260510111809 | 62 | 3 | 13.0 | 22.0 | 0.00 | 0.00 | 0.00 | 58 | 1014.1 |
| 20260510111306 | 62 | 0 | 15.0 | 22.0 | 0.00 | 0.00 | 0.00 | 58 | 1014.2 |
| 20260510110808 | 64 | 8 | 17.0 | 22.0 | 0.00 | 0.00 | 0.00 | 58 | 1014.2 |
| 20260510110306 | 63 | 0 | 10.0 | 21.0 | 0.00 | 0.00 | 0.00 | 63 | 1014.1 |
| 20260510105810 | 62 | 0 | 11.0 | 23.0 | 0.00 | 0.00 | 0.00 | 64 | 1014.1 |
| 20260510105307 | 62 | 8 | 14.0 | 23.0 | 0.00 | 0.00 | 0.00 | 63 | 1014.0 |
| 20260510104808 | 62 | 1 | 16.0 | 23.0 | 0.00 | 0.00 | 0.00 | 62 | 1014.2 |
| 20260510102308 | 62 | 7 | 15.0 | 26.0 | 0.00 | 0.00 | 0.00 | 59 | 1014.2 |
| 20260510101809 | 62 | 0 | 15.0 | 26.0 | 0.00 | 0.00 | 0.00 | 60 | 1014.2 |
| 20260510101305 | 62 | 0 | 15.0 | 26.0 | 0.00 | 0.00 | 0.00 | 58 | 1014.3 |
| 20260510100811 | 63 | 0 | 10.0 | 24.0 | 0.00 | 0.00 | 0.00 | 60 | 1014.3 |
| 20260510100305 | 63 | 0 | 15.0 | 27.0 | 0.00 | 0.00 | 0.00 | 59 | 1014.3 |
| 20260510095810 | 63 | 0 | 15.0 | 27.0 | 0.00 | 0.00 | 0.00 | 58 | 1014.3 |
| 20260510095308 | 63 | 6 | 12.0 | 23.0 | 0.00 | 0.00 | 0.00 | 59 | 1014.4 |
| 20260510094809 | 63 | 7 | 13.0 | 24.0 | 0.00 | 0.00 | 0.00 | 56 | 1014.5 |
| 20260510094306 | 63 | 4 | 14.0 | 24.0 | 0.00 | 0.00 | 0.00 | 57 | 1014.5 |
| 20260510093809 | 62 | 0 | 11.0 | 28.0 | 0.00 | 0.00 | 0.00 | 56 | 1014.5 |
| 20260510093307 | 62 | 0 | 13.0 | 28.0 | 0.00 | 0.00 | 0.00 | 55 | 1014.6 |
| 20260510092807 | 61 | 6 | 17.0 | 28.0 | 0.00 | 0.00 | 0.00 | 55 | 1014.6 |
| 20260510092307 | 61 | 0 | 19.0 | 28.0 | 0.00 | 0.00 | 0.00 | 54 | 1014.7 |
| 20260510091809 | 61 | 0 | 14.0 | 26.0 | 0.00 | 0.00 | 0.00 | 56 | 1014.7 |
| 20260510091306 | 61 | 3 | 18.0 | 24.0 | 0.00 | 0.00 | 0.00 | 55 | 1014.7 |
| 20260510090808 | 60 | 1 | 14.0 | 26.0 | 0.00 | 0.00 | 0.00 | 57 | 1014.7 |
| 20260510090305 | 60 | 0 | 15.0 | 26.0 | 0.00 | 0.00 | 0.00 | 58 | 1014.7 |
| 20260510085809 | 60 | 0 | 15.0 | 23.0 | 0.00 | 0.00 | 0.00 | 57 | 1014.8 |
| 20260510085306 | 60 | 8 | 16.0 | 23.0 | 0.00 | 0.00 | 0.00 | 58 | 1014.8 |
| 20260510084809 | 60 | 7 | 11.0 | 21.0 | 0.00 | 0.00 | 0.00 | 60 | 1014.9 |
| 20260510084308 | 60 | 24 | 14.0 | 22.0 | 0.00 | 0.00 | 0.00 | 59 | 1014.7 |
| 20260510083808 | 60 | 14 | 13.0 | 22.0 | 0.00 | 0.00 | 0.00 | 60 | 1014.8 |
| 20260510083306 | 60 | 6 | 16.0 | 24.0 | 0.00 | 0.00 | 0.00 | 61 | 1014.8 |
| 20260510082811 | 60 | 13 | 16.0 | 24.0 | 0.00 | 0.00 | 0.00 | 62 | 1014.8 |
| 20260510082307 | 60 | 0 | 15.0 | 24.0 | 0.00 | 0.00 | 0.00 | 63 | 1014.9 |
| 20260510081809 | 59 | 0 | 15.0 | 24.0 | 0.00 | 0.00 | 0.00 | 63 | 1014.9 |
| 20260510080810 | 59 | 0 | 11.0 | 23.0 | 0.00 | 0.00 | 0.00 | 66 | 1015.0 |
| 20260510080305 | 58 | 0 | 13.0 | 23.0 | 0.00 | 0.00 | 0.00 | 67 | 1015.0 |
| 20260510075813 | 58 | 3 | 15.0 | 20.0 | 0.00 | 0.00 | 0.00 | 67 | 1015.0 |
| 20260510075308 | 59 | 0 | 13.0 | 22.0 | 0.00 | 0.00 | 0.00 | 67 | 1015.2 |
| 20260510074809 | 59 | 0 | 17.0 | 22.0 | 0.00 | 0.00 | 0.00 | 66 | 1015.3 |
| 20260510073808 | 59 | 0 | 12.0 | 20.0 | 0.00 | 0.00 | 0.00 | 69 | 1015.5 |
| 20260510072809 | 59 | 0 | 13.0 | 20.0 | 0.00 | 0.00 | 0.00 | 69 | 1015.5 |
| 20260510072307 | 59 | 0 | 11.0 | 20.0 | 0.00 | 0.00 | 0.00 | 69 | 1015.5 |
| 20260510071811 | 58 | 0 | 7.0 | 19.0 | 0.00 | 0.00 | 0.00 | 71 | 1015.5 |
| 20260510070810 | 58 | 0 | 13.0 | 19.0 | 0.00 | 0.00 | 0.00 | 72 | 1015.5 |
| 20260510070305 | 57 | 0 | 10.0 | 18.0 | 0.00 | 0.00 | 0.00 | 73 | 1015.6 |
| 20260510065809 | 57 | 8 | 11.0 | 18.0 | 0.00 | 0.00 | 0.00 | 74 | 1015.5 |
| 20260510065306 | 57 | 0 | 10.0 | 18.0 | 0.00 | 0.00 | 0.00 | 74 | 1015.5 |
| 20260510064807 | 57 | 0 | 13.0 | 18.0 | 0.00 | 0.00 | 0.00 | 75 | 1015.5 |
| 20260510064305 | 56 | 0 | 9.0 | 17.0 | 0.00 | 0.00 | 0.00 | 76 | 1015.5 |
| 20260510063807 | 56 | 0 | 10.0 | 19.0 | 0.00 | 0.00 | 0.00 | 77 | 1015.6 |
| 20260510063306 | 56 | 17 | 10.0 | 19.0 | 0.00 | 0.00 | 0.00 | 78 | 1015.6 |
| 20260510062307 | 55 | 4 | 10.0 | 19.0 | 0.00 | 0.00 | 0.00 | 79 | 1015.6 |
| 20260510061808 | 55 | 0 | 10.0 | 20.0 | 0.00 | 0.00 | 0.00 | 80 | 1015.5 |
| 20260510061304 | 55 | 0 | 10.0 | 20.0 | 0.00 | 0.00 | 0.00 | 81 | 1015.5 |
| 20260510060306 | 54 | 13 | 10.0 | 18.0 | 0.00 | 0.00 | 0.00 | 82 | 1015.6 |
| 20260510055809 | 53 | 3 | 9.0 | 16.0 | 0.00 | 0.00 | 0.00 | 83 | 1015.6 |
| 20260510055307 | 53 | 8 | 11.0 | 16.0 | 0.00 | 0.00 | 0.00 | 83 | 1015.6 |
| 20260510054809 | 53 | 0 | 11.0 | 14.0 | 0.00 | 0.00 | 0.00 | 84 | 1015.5 |
| 20260510054305 | 53 | 0 | 9.0 | 16.0 | 0.00 | 0.00 | 0.00 | 85 | 1015.5 |
| 20260510053809 | 53 | 0 | 10.0 | 18.0 | 0.00 | 0.00 | 0.00 | 86 | 1015.3 |
| 20260510053305 | 53 | 0 | 11.0 | 18.0 | 0.00 | 0.00 | 0.00 | 86 | 1015.3 |
| 20260510052808 | 52 | 10 | 9.0 | 17.0 | 0.00 | 0.00 | 0.00 | 87 | 1015.3 |
| 20260510052306 | 52 | 0 | 9.0 | 16.0 | 0.00 | 0.00 | 0.00 | 87 | 1015.4 |
| 20260510051306 | 52 | 6 | 10.0 | 16.0 | 0.00 | 0.00 | 0.00 | 87 | 1015.3 |
| 20260510050821 | 51 | 0 | 10.0 | 15.0 | 0.00 | 0.00 | 0.00 | 87 | 1015.2 |
| 20260510050305 | 51 | 0 | 8.0 | 14.0 | 0.00 | 0.00 | 0.00 | 87 | 1015.3 |
| 20260510045809 | 51 | 0 | 8.0 | 12.0 | 0.00 | 0.00 | 0.00 | 87 | 1015.4 |
| 20260510045307 | 51 | 0 | 8.0 | 12.0 | 0.00 | 0.00 | 0.00 | 87 | 1015.5 |
| 20260510044808 | 51 | 0 | 8.0 | 12.0 | 0.00 | 0.00 | 0.00 | 87 | 1015.5 |
| 20260510044307 | 51 | 7 | 7.0 | 12.0 | 0.00 | 0.00 | 0.00 | 87 | 1015.5 |
| 20260510043305 | 51 | 3 | 7.0 | 13.0 | 0.00 | 0.00 | 0.00 | 87 | 1015.5 |
| 20260510042808 | 51 | 0 | 6.0 | 13.0 | 0.00 | 0.00 | 0.00 | 87 | 1015.4 |
| 20260510042307 | 51 | 10 | 8.0 | 13.0 | 0.00 | 0.00 | 0.00 | 87 | 1015.4 |
| 20260510041809 | 51 | 0 | 9.0 | 13.0 | 0.00 | 0.00 | 0.00 | 87 | 1015.4 |
| 20260510041305 | 51 | 0 | 7.0 | 12.0 | 0.00 | 0.00 | 0.00 | 87 | 1015.3 |
| 20260510040308 | 51 | 4 | 7.0 | 12.0 | 0.00 | 0.00 | 0.00 | 87 | 1015.2 |
| 20260510035809 | 51 | 0 | 8.0 | 12.0 | 0.00 | 0.00 | 0.00 | 87 | 1015.2 |
| 20260510035306 | 51 | 0 | 6.0 | 12.0 | 0.00 | 0.00 | 0.00 | 87 | 1015.2 |
| 20260510034809 | 51 | 0 | 7.0 | 12.0 | 0.00 | 0.00 | 0.00 | 87 | 1015.1 |
| 20260510034307 | 51 | 4 | 9.0 | 12.0 | 0.00 | 0.00 | 0.00 | 87 | 1015.2 |
| 20260510033809 | 51 | 3 | 8.0 | 13.0 | 0.00 | 0.00 | 0.00 | 87 | 1015.2 |
| 20260510033306 | 51 | 0 | 8.0 | 13.0 | 0.00 | 0.00 | 0.00 | 87 | 1015.3 |
| 20260510032306 | 51 | 0 | 7.0 | 13.0 | 0.00 | 0.00 | 0.00 | 87 | 1015.2 |
| 20260510031808 | 51 | 0 | 9.0 | 12.0 | 0.00 | 0.00 | 0.00 | 87 | 1015.4 |
| 20260510030811 | 51 | 0 | 7.0 | 10.0 | 0.00 | 0.00 | 0.00 | 87 | 1015.5 |
| 20260510030305 | 51 | 0 | 7.0 | 11.0 | 0.00 | 0.00 | 0.00 | 87 | 1015.5 |
| 20260510025810 | 51 | 0 | 6.0 | 12.0 | 0.00 | 0.00 | 0.00 | 87 | 1015.4 |
| 20260510025306 | 51 | 0 | 7.0 | 12.0 | 0.00 | 0.00 | 0.00 | 87 | 1015.4 |
| 20260510024818 | 51 | 11 | 7.0 | 11.0 | 0.00 | 0.00 | 0.00 | 87 | 1015.5 |
| 20260510024305 | 51 | 4 | 6.0 | 11.0 | 0.00 | 0.00 | 0.00 | 86 | 1015.5 |
| 20260510023809 | 51 | 0 | 6.0 | 13.0 | 0.00 | 0.00 | 0.00 | 86 | 1015.6 |
| 20260510023305 | 51 | 0 | 7.0 | 13.0 | 0.00 | 0.00 | 0.00 | 86 | 1015.5 |
| 20260510022809 | 52 | 1 | 7.0 | 13.0 | 0.00 | 0.00 | 0.00 | 86 | 1015.5 |
| 20260510022307 | 52 | 3 | 7.0 | 13.0 | 0.00 | 0.00 | 0.00 | 86 | 1015.5 |
| 20260510021809 | 52 | 14 | 8.0 | 11.0 | 0.00 | 0.00 | 0.00 | 86 | 1015.6 |
| 20260510021305 | 51 | 0 | 6.0 | 11.0 | 0.00 | 0.00 | 0.00 | 86 | 1015.6 |
| 20260510020309 | 52 | 0 | 7.0 | 12.0 | 0.00 | 0.00 | 0.00 | 86 | 1015.7 |
| 20260510015809 | 52 | 0 | 7.0 | 13.0 | 0.00 | 0.00 | 0.00 | 86 | 1015.6 |
| 20260510015307 | 51 | 0 | 8.0 | 13.0 | 0.00 | 0.00 | 0.00 | 86 | 1015.6 |
| 20260510014305 | 51 | 0 | 7.0 | 12.0 | 0.00 | 0.00 | 0.00 | 86 | 1015.7 |
| 20260510013305 | 51 | 0 | 7.0 | 12.0 | 0.00 | 0.00 | 0.00 | 85 | 1015.7 |
| 20260510012307 | 51 | 0 | 7.0 | 11.0 | 0.00 | 0.00 | 0.00 | 85 | 1015.8 |
| 20260510011809 | 51 | 0 | 7.0 | 11.0 | 0.00 | 0.00 | 0.00 | 85 | 1015.8 |
| 20260510011307 | 51 | 0 | 6.0 | 9.0 | 0.00 | 0.00 | 0.00 | 84 | 1015.8 |
| 20260510010809 | 51 | 0 | 5.0 | 7.0 | 0.00 | 0.00 | 0.00 | 84 | 1015.9 |
| 20260510010305 | 52 | 0 | 6.0 | 7.0 | 0.00 | 0.00 | 0.00 | 84 | 1015.9 |
| 20260510005809 | 52 | 0 | 5.0 | 9.0 | 0.00 | 0.00 | 0.00 | 84 | 1015.9 |
| 20260510005306 | 52 | 0 | 6.0 | 9.0 | 0.00 | 0.00 | 0.00 | 83 | 1015.9 |
| 20260510004809 | 52 | 17 | 6.0 | 9.0 | 0.00 | 0.00 | 0.00 | 83 | 1015.9 |
| 20260510004305 | 52 | 0 | 6.0 | 11.0 | 0.00 | 0.00 | 0.00 | 83 | 1016.0 |
| 20260510003307 | 52 | 0 | 6.0 | 9.0 | 0.00 | 0.00 | 0.00 | 82 | 1016.2 |
| 20260510002307 | 52 | 4 | 5.0 | 10.0 | 0.00 | 0.00 | 0.00 | 82 | 1016.4 |
| 20260510001808 | 52 | 0 | 5.0 | 10.0 | 0.00 | 0.00 | 0.00 | 82 | 1016.3 |
| 20260510000305 | 52 | 0 | 6.0 | 9.0 | 0.00 | 0.00 | 0.00 | 81 | 1016.4 |
| 20260509235809 | 52 | 10 | 6.0 | 9.0 | 0.00 | 0.00 | 0.00 | 81 | 1016.4 |
| 20260509235307 | 52 | 0 | 6.0 | 10.0 | 0.00 | 0.00 | 0.00 | 81 | 1016.3 |
| 20260509234808 | 52 | 0 | 6.0 | 10.0 | 0.00 | 0.00 | 0.00 | 81 | 1016.3 |
| 20260509234310 | 52 | 11 | 6.0 | 11.0 | 0.00 | 0.00 | 0.00 | 81 | 1016.4 |
| 20260509233809 | 53 | 0 | 7.0 | 11.0 | 0.00 | 0.00 | 0.00 | 80 | 1016.5 |
| 20260509233307 | 53 | 0 | 7.0 | 11.0 | 0.00 | 0.00 | 0.00 | 80 | 1016.5 |
| 20260509232808 | 53 | 3 | 6.0 | 11.0 | 0.00 | 0.00 | 0.00 | 79 | 1016.4 |
| 20260509231808 | 53 | 1 | 7.0 | 11.0 | 0.00 | 0.00 | 0.00 | 79 | 1016.5 |
| 20260509231307 | 53 | 3 | 8.0 | 12.0 | 0.00 | 0.00 | 0.00 | 79 | 1016.6 |
| 20260509230809 | 53 | 0 | 8.0 | 12.0 | 0.00 | 0.00 | 0.00 | 78 | 1016.6 |
| 20260509230305 | 53 | 8 | 9.0 | 12.0 | 0.00 | 0.00 | 0.00 | 78 | 1016.5 |
| 20260509224808 | 53 | 4 | 7.0 | 11.0 | 0.00 | 0.00 | 0.00 | 77 | 1016.6 |
| 20260509223809 | 53 | 0 | 7.0 | 12.0 | 0.00 | 0.00 | 0.00 | 77 | 1016.6 |
| 20260509222810 | 54 | 0 | 8.0 | 11.0 | 0.00 | 0.00 | 0.00 | 77 | 1016.6 |
| 20260509222307 | 54 | 0 | 8.0 | 11.0 | 0.00 | 0.00 | 0.00 | 76 | 1016.6 |
| 20260509221809 | 54 | 0 | 8.0 | 12.0 | 0.00 | 0.00 | 0.00 | 76 | 1016.5 |
| 20260509220809 | 54 | 0 | 8.0 | 13.0 | 0.00 | 0.00 | 0.00 | 76 | 1016.5 |
| 20260509220305 | 54 | 16 | 7.0 | 12.0 | 0.00 | 0.00 | 0.00 | 76 | 1016.5 |
| 20260509215808 | 54 | 8 | 7.0 | 12.0 | 0.00 | 0.00 | 0.00 | 75 | 1016.4 |
| 20260509215306 | 54 | 0 | 8.0 | 12.0 | 0.00 | 0.00 | 0.00 | 75 | 1016.4 |
| 20260509214808 | 54 | 0 | 7.0 | 12.0 | 0.00 | 0.00 | 0.00 | 74 | 1016.5 |
| 20260509214306 | 54 | 11 | 8.0 | 11.0 | 0.00 | 0.00 | 0.00 | 74 | 1016.5 |
| 20260509213807 | 54 | 0 | 7.0 | 11.0 | 0.00 | 0.00 | 0.00 | 74 | 1016.5 |
| 20260509213305 | 55 | 0 | 7.0 | 11.0 | 0.00 | 0.00 | 0.00 | 73 | 1016.6 |
| 20260509212807 | 55 | 3 | 7.0 | 11.0 | 0.00 | 0.00 | 0.00 | 73 | 1016.6 |
| 20260509212306 | 55 | 6 | 8.0 | 13.0 | 0.00 | 0.00 | 0.00 | 72 | 1016.5 |
| 20260509211810 | 55 | 3 | 7.0 | 13.0 | 0.00 | 0.00 | 0.00 | 72 | 1016.5 |
| 20260509211306 | 55 | 0 | 7.0 | 12.0 | 0.00 | 0.00 | 0.00 | 71 | 1016.5 |
| 20260509205810 | 55 | 0 | 8.0 | 11.0 | 0.00 | 0.00 | 0.00 | 69 | 1016.4 |
| 20260509205307 | 55 | 0 | 6.0 | 10.0 | 0.00 | 0.00 | 0.00 | 69 | 1016.4 |
| 20260509204310 | 55 | 0 | 6.0 | 11.0 | 0.00 | 0.00 | 0.00 | 68 | 1016.4 |
| 20260509203809 | 56 | 4 | 5.0 | 10.0 | 0.00 | 0.00 | 0.00 | 67 | 1016.5 |
| 20260509203305 | 56 | 11 | 5.0 | 11.0 | 0.00 | 0.00 | 0.00 | 66 | 1016.3 |
| 20260509202812 | 56 | 6 | 7.0 | 11.0 | 0.00 | 0.00 | 0.00 | 66 | 1016.2 |
| 20260509202307 | 56 | 0 | 7.0 | 13.0 | 0.00 | 0.00 | 0.00 | 66 | 1016.4 |
| 20260509201807 | 56 | 0 | 7.0 | 13.0 | 0.00 | 0.00 | 0.00 | 65 | 1016.4 |
| 20260509201304 | 56 | 0 | 6.0 | 12.0 | 0.00 | 0.00 | 0.00 | 65 | 1016.3 |
| 20260509200808 | 57 | 6 | 6.0 | 11.0 | 0.00 | 0.00 | 0.00 | 65 | 1016.3 |
| 20260509200305 | 57 | 0 | 7.0 | 12.0 | 0.00 | 0.00 | 0.00 | 65 | 1016.3 |
| 20260509195811 | 57 | 0 | 9.0 | 12.0 | 0.00 | 0.00 | 0.00 | 65 | 1016.2 |
| 20260509195306 | 57 | 0 | 7.0 | 11.0 | 0.00 | 0.00 | 0.00 | 65 | 1016.3 |
| 20260509194811 | 57 | 0 | 6.0 | 10.0 | 0.00 | 0.00 | 0.00 | 64 | 1016.2 |
| 20260509194304 | 57 | 0 | 6.0 | 11.0 | 0.00 | 0.00 | 0.00 | 64 | 1016.2 |
| 20260509193809 | 58 | 0 | 7.0 | 12.0 | 0.00 | 0.00 | 0.00 | 64 | 1016.1 |
| 20260509193307 | 58 | 0 | 8.0 | 12.0 | 0.00 | 0.00 | 0.00 | 63 | 1016.1 |
| 20260509192306 | 58 | 3 | 8.0 | 13.0 | 0.00 | 0.00 | 0.00 | 63 | 1016.1 |
| 20260509191808 | 58 | 0 | 6.0 | 13.0 | 0.00 | 0.00 | 0.00 | 62 | 1016.1 |
| 20260509191305 | 59 | 0 | 7.0 | 13.0 | 0.00 | 0.00 | 0.00 | 62 | 1016.0 |
| 20260509190809 | 59 | 1 | 8.0 | 13.0 | 0.00 | 0.00 | 0.00 | 61 | 1015.9 |
| 20260509190306 | 59 | 0 | 8.0 | 15.0 | 0.00 | 0.00 | 0.00 | 60 | 1016.1 |
| 20260509185807 | 60 | 18 | 9.0 | 15.0 | 0.00 | 0.00 | 0.00 | 58 | 1015.9 |
| 20260509185306 | 60 | 6 | 9.0 | 15.0 | 0.00 | 0.00 | 0.00 | 57 | 1016.0 |
| 20260509184807 | 60 | 1 | 10.0 | 15.0 | 0.00 | 0.00 | 0.00 | 57 | 1016.0 |
| 20260509183807 | 61 | 0 | 9.0 | 15.0 | 0.00 | 0.00 | 0.00 | 58 | 1016.0 |
| 20260509183304 | 62 | 4 | 9.0 | 17.0 | 0.00 | 0.00 | 0.00 | 57 | 1016.0 |
| 20260509182807 | 62 | 0 | 11.0 | 17.0 | 0.00 | 0.00 | 0.00 | 56 | 1015.9 |
| 20260509182306 | 62 | 0 | 9.0 | 14.0 | 0.00 | 0.00 | 0.00 | 57 | 1015.9 |
| 20260509181812 | 63 | 0 | 9.0 | 14.0 | 0.00 | 0.00 | 0.00 | 57 | 1015.9 |
| 20260509181305 | 63 | 0 | 9.0 | 15.0 | 0.00 | 0.00 | 0.00 | 56 | 1015.8 |
| 20260509180808 | 63 | 0 | 9.0 | 15.0 | 0.00 | 0.00 | 0.00 | 56 | 1016.0 |
| 20260509180304 | 64 | 7 | 11.0 | 16.0 | 0.00 | 0.00 | 0.00 | 55 | 1015.9 |
| 20260509175807 | 64 | 1 | 9.0 | 18.0 | 0.00 | 0.00 | 0.00 | 56 | 1016.0 |
| 20260509175307 | 64 | 4 | 11.0 | 18.0 | 0.00 | 0.00 | 0.00 | 55 | 1015.9 |
| 20260509174809 | 65 | 0 | 8.0 | 17.0 | 0.00 | 0.00 | 0.00 | 56 | 1015.9 |
| 20260509174304 | 65 | 0 | 11.0 | 16.0 | 0.00 | 0.00 | 0.00 | 56 | 1015.9 |
| 20260509173809 | 65 | 4 | 9.0 | 16.0 | 0.00 | 0.00 | 0.00 | 56 | 1015.9 |
| 20260509172808 | 66 | 0 | 10.0 | 18.0 | 0.00 | 0.00 | 0.00 | 55 | 1015.8 |
| 20260509172307 | 66 | 0 | 12.0 | 18.0 | 0.00 | 0.00 | 0.00 | 55 | 1015.7 |
| 20260509171807 | 66 | 0 | 11.0 | 17.0 | 0.00 | 0.00 | 0.00 | 55 | 1015.7 |
| 20260509171305 | 66 | 4 | 12.0 | 18.0 | 0.00 | 0.00 | 0.00 | 54 | 1015.6 |
| 20260509170808 | 67 | 0 | 14.0 | 18.0 | 0.00 | 0.00 | 0.00 | 54 | 1015.6 |
| 20260509170306 | 67 | 0 | 13.0 | 19.0 | 0.00 | 0.00 | 0.00 | 54 | 1015.5 |
| 20260509165809 | 67 | 4 | 12.0 | 20.0 | 0.00 | 0.00 | 0.00 | 54 | 1015.5 |
| 20260509165307 | 67 | 0 | 13.0 | 21.0 | 0.00 | 0.00 | 0.00 | 53 | 1015.6 |
| 20260509164809 | 67 | 0 | 13.0 | 21.0 | 0.00 | 0.00 | 0.00 | 53 | 1015.7 |
| 20260509163808 | 68 | 20 | 11.0 | 18.0 | 0.00 | 0.00 | 0.00 | 52 | 1015.6 |
| 20260509163304 | 68 | 13 | 8.0 | 18.0 | 0.00 | 0.00 | 0.00 | 54 | 1015.6 |
| 20260509162307 | 68 | 0 | 13.0 | 20.0 | 0.00 | 0.00 | 0.00 | 53 | 1015.7 |
| 20260509161810 | 68 | 16 | 12.0 | 20.0 | 0.00 | 0.00 | 0.00 | 53 | 1015.7 |
| 20260509161305 | 68 | 0 | 12.0 | 19.0 | 0.00 | 0.00 | 0.00 | 53 | 1015.7 |
| 20260509155808 | 69 | 0 | 10.0 | 17.0 | 0.00 | 0.00 | 0.00 | 53 | 1015.8 |
| 20260509155306 | 69 | 0 | 11.0 | 18.0 | 0.00 | 0.00 | 0.00 | 53 | 1015.6 |
| 20260509154810 | 69 | 0 | 11.0 | 18.0 | 0.00 | 0.00 | 0.00 | 53 | 1015.6 |
| 20260509154309 | 69 | 1 | 11.0 | 18.0 | 0.00 | 0.00 | 0.00 | 53 | 1015.7 |
| 20260509153811 | 69 | 17 | 13.0 | 18.0 | 0.00 | 0.00 | 0.00 | 53 | 1015.7 |
| 20260509153304 | 70 | 0 | 11.0 | 16.0 | 0.00 | 0.00 | 0.00 | 51 | 1015.7 |
| 20260509152307 | 71 | 4 | 11.0 | 16.0 | 0.00 | 0.00 | 0.00 | 48 | 1015.6 |
| 20260509151808 | 70 | 0 | 6.0 | 15.0 | 0.00 | 0.00 | 0.00 | 50 | 1015.6 |
| 20260509151306 | 70 | 0 | 10.0 | 15.0 | 0.00 | 0.00 | 0.00 | 48 | 1015.6 |
| 20260509150808 | 71 | 13 | 6.0 | 13.0 | 0.00 | 0.00 | 0.00 | 49 | 1015.5 |
| 20260509150304 | 71 | 0 | 6.0 | 14.0 | 0.00 | 0.00 | 0.00 | 49 | 1015.5 |
| 20260509145809 | 70 | 0 | 9.0 | 14.0 | 0.00 | 0.00 | 0.00 | 49 | 1015.5 |
| 20260509145306 | 70 | 0 | 8.0 | 11.0 | 0.00 | 0.00 | 0.00 | 50 | 1015.5 |
| 20260509144809 | 70 | 0 | 8.0 | 11.0 | 0.00 | 0.00 | 0.00 | 49 | 1015.6 |
| 20260509144305 | 71 | 17 | 6.0 | 13.0 | 0.00 | 0.00 | 0.00 | 48 | 1015.7 |